This demonstration page uses our WeatherBlox Daily Observations layout. Learn more.

Hourly Observations for September 28, 2015

Temp ( °F °C ) Dew Point ( °F °C ) Humidity (%) Winds ( mph kmh ) Pressure ( in mb ) Visibility ( mi km ) Precip ( " mm )
12:15 am 00:15 Clear 65 18.2 55 12.6 70 70 S 6 9 29.85 1011 10 16.0934 0 0
12:35 am 00:35 Clear 65 18.1 55 12.6 70 70 S 9 15 29.85 1011 10 16.0934 0 0
12:55 am 00:55 Clear 64 18 55 12.6 71 71 S 7 11 29.83 1010 10 16.0934 0 0
1:15 am 01:15 Clear 65 18.1 55 12.6 70 70 S 8 13 29.85 1011 10 16.0934 0 0
1:35 am 01:35 Clear 64 18 55 12.5 70 70 S 8 13 29.83 1010 10 16.0934 0 0
1:55 am 01:55 Clear 64 18 55 12.5 70 70 S 10 17 29.85 1011 10 16.0934 0 0
2:15 am 02:15 Clear 64 17.8 55 12.5 71 71 S 8 13 29.85 1011 10 16.0934 0 0
2:35 am 02:35 Clear 63 17.3 55 12.5 74 74 S 7 11 29.85 1011 10 16.0934 0 0
2:55 am 02:55 Clear 63 17 55 12.5 75 75 S 8 13 29.85 1011 10 16.0934 0 0
3:15 am 03:15 Clear 63 17 55 12.5 75 75 S 7 11 29.85 1011 10 16.0934 0 0
3:35 am 03:35 Clear 62 16.7 55 12.5 76 76 S 7 11 29.83 1010 10 16.0934 0 0
3:55 am 03:55 Clear 62 16.7 55 12.5 76 76 SSW 6 9 29.85 1011 10 16.0934 0 0
4:15 am 04:15 Clear 62 16.6 55 12.5 77 77 SSW 7 11 29.83 1010 10 16.0934 0 0
4:35 am 04:35 Clear 62 16.6 55 12.5 77 77 SSW 8 13 29.85 1011 10 16.0934 0 0
4:55 am 04:55 Clear 62 16.6 55 12.5 77 77 SSW 9 15 29.83 1010 10 16.0934 0 0
5:15 am 05:15 Clear 61 16.3 55 12.5 78 78 S 9 15 29.83 1010 10 16.0934 0 0
5:35 am 05:35 Clear 61 16.2 55 12.5 79 79 SSW 8 13 29.83 1010 10 16.0934 0 0
5:55 am 05:55 Clear 60 15.8 54 12.3 80 80 S 7 11 29.83 1010 10 16.0934 0 0
6:15 am 06:15 Clear 60 15.7 54 12.4 81 81 S 5 7 29.85 1011 10 16.0934 0 0
6:35 am 06:35 Clear 58 14.5 53 11.9 85 85 S 5 7 29.88 1012 10 16.0934 0 0
6:55 am 06:55 Clear 58 14.5 54 12.2 86 86 Calm 29.88 1012 10 16.0934 0 0
7:15 am 07:15 Clear 57 13.8 53 11.8 88 88 SSE 5 7 29.88 1012 10 16.0934 0 0
7:35 am 07:35 Sunny 57 13.9 54 12.1 89 89 SSE 6 9 29.88 1012 10 16.0934 0 0
7:55 am 07:55 Sunny 57 14 54 12.1 88 88 SSE 5 7 29.88 1012 10 16.0934 0 0
8:15 am 08:15 Sunny 58 14.7 55 12.6 87 87 S 5 7 29.91 1013 10 16.0934 0 0
8:35 am 08:35 Sunny 60 15.7 55 13 84 84 Calm 29.91 1013 10 16.0934 0 0
8:55 am 08:55 Sunny 62 16.8 56 13.2 79 79 Calm 29.88 1012 10 16.0934 0 0
9:15 am 09:15 Sunny 64 17.7 56 13.4 76 76 S 3 6 29.88 1012 10 16.0934 0 0
9:35 am 09:35 Sunny 65 18.6 56 13.2 71 71 S 7 11 29.85 1011 10 16.0934 0 0
9:55 am 09:55 Sunny 68 20 56 13.1 65 65 S 7 11 29.85 1011 10 16.0934 0 0
10:15 am 10:15 Sunny 70 20.9 55 13 61 61 SSW 3 6 29.85 1011 10 16.0934 0 0
10:35 am 10:35 Sunny 72 22 55 12.7 56 56 SW 5 7 29.85 1011 10 16.0934 0 0
10:55 am 10:55 Sunny 73 22.7 55 12.5 53 53 SSW 5 7 29.83 1010 10 16.0934 0 0
11:15 am 11:15 Sunny 75 24.1 54 12.3 48 48 S 7 11 29.83 1010 10 16.0934 0 0
11:35 am 11:35 Sunny 76 24.3 55 12.5 48 48 S 7 11 29.83 1010 10 16.0934 0 0
11:55 am 11:55 Sunny 77 25 54 12.2 45 45 S 3 6 29.83 1010 10 16.0934 0 0
12:15 pm 12:15 Sunny 79 26 54 12.1 42 42 SSE 6 9 29.83 1010 10 16.0934 0 0
12:35 pm 12:35 Sunny 80 26.6 54 12 40 40 SSW 6 9 29.8 1009 10 16.0934 0 0
12:55 pm 12:55 Sunny 82 27.7 53 11.8 37 37 SSE 3 6 29.8 1009 10 16.0934 0 0
1:15 pm 13:15 Sunny 82 27.7 53 11.6 37 37 S 3 6 29.8 1009 10 16.0934 0 0
1:35 pm 13:35 Sunny 83 28.3 53 11.8 36 36 SSE 6 9 29.8 1009 10 16.0934 0 0
1:55 pm 13:55 Sunny 84 28.8 53 11.7 35 35 E 3 6 29.77 1008 10 16.0934 0 0
2:15 pm 14:15 Sunny 85 29.5 52 11 32 32 SSE 7 11 29.74 1007 10 16.0934 0 0
2:35 pm 14:35 Sunny 85 29.5 50 10.2 30 30 SSE 9 15 29.74 1007 10 16.0934 0 0
2:55 pm 14:55 Sunny 85 29.5 50 10 30 30 SSE 9 15 29.74 1007 10 16.0934 0 0
3:15 pm 15:15 Sunny 84 29 49 9.4 29 29 S 5 7 29.74 1007 10 16.0934 0 0
3:35 pm 15:35 Sunny 85 29.5 50 10 30 30 S 10 17 29.71 1006 10 16.0934 0 0
3:55 pm 15:55 Sunny 86 30.1 50 9.9 28 28 SE 9 15 29.71 1006 10 16.0934 0 0
4:15 pm 16:15 Sunny 87 30.5 49 9.7 27 27 SSE 7 11 29.71 1006 10 16.0934 0 0
4:35 pm 16:35 Sunny 85 29.6 49 9.2 28 28 SE 7 11 29.71 1006 10 16.0934 0 0
4:55 pm 16:55 Sunny 86 30.2 49 9.3 27 27 SSE 7 11 29.71 1006 10 16.0934 0 0
5:15 pm 17:15 Sunny 87 30.3 49 9.2 27 27 S 9 15 29.71 1006 10 16.0934 0 0
5:35 pm 17:35 Sunny 85 29.5 49 9.2 28 28 S 9 15 29.71 1006 10 16.0934 0 0
5:55 pm 17:55 Sunny 85 29.4 49 9.5 29 29 SSE 7 11 29.74 1007 10 16.0934 0 0
6:15 pm 18:15 Sunny 85 29.3 49 9.5 29 29 SSE 5 7 29.74 1007 10 16.0934 0 0
6:35 pm 18:35 Sunny 84 29 49 9.7 30 30 SSE 3 6 29.74 1007 10 16.0934 0 0
6:55 pm 18:55 Sunny 82 27.8 51 10.5 34 34 Calm 29.77 1008 10 16.0934 0 0
7:15 pm 19:15 Sunny 79 26 53 11.7 41 41 ESE 3 6 29.77 1008 10 16.0934 0 0
7:35 pm 19:35 Partly Cloudy 77 25.1 54 12 44 44 ESE 12 19 29.77 1008 10 16.0934 0 0
7:55 pm 19:55 Partly Cloudy 76 24.5 53 11.7 45 45 E 3 6 29.8 1009 10 16.0934 0 0
8:15 pm 20:15 Clear 73 22.7 56 13.6 57 57 NNE 5 7 29.83 1010 10 16.0934 0 0
8:35 pm 20:35 Clear 74 23.2 59 14.9 60 60 NNE 13 20 29.83 1010 10 16.0934 0 0
8:55 pm 20:55 Clear 73 22.7 59 15.1 62 62 NE 14 22 29.85 1011 10 16.0934 0 0
9:15 pm 21:15 Clear 73 22.5 59 14.9 62 62 NE 12 19 29.85 1011 10 16.0934 0 0
9:35 pm 21:35 Clear 71 21.9 59 15.1 65 65 NE 12 19 29.88 1012 10 16.0934 0 0
9:55 pm 21:55 Clear 70 21.3 60 15.7 71 71 NNE 10 17 29.91 1013 10 16.0934 0 0
10:15 pm 22:15 Clear 69 20.8 61 15.9 74 74 NNE 16 26 29.91 1013 10 16.0934 0 0
10:35 pm 22:35 Clear 67 19.6 60 15.5 77 77 NW 5 7 29.91 1013 10 16.0934 0 0
10:55 pm 22:55 Clear 65 18.2 59 15 82 82 NNE 17 28 29.94 1014 10 16.0934 0 0
11:15 pm 23:15 Clear 64 17.9 58 14.7 82 82 NNE 15 24 29.97 1015 10 16.0934 0 0
11:35 pm 23:35 Clear 64 17.5 58 14.2 81 81 N 15 24 30 1016 10 16.0934 0 0
11:55 pm 23:55 Clear 63 17.2 57 13.8 81 81 NNE 15 24 29.97 1015 10 16.0934 0 0

Powered by AerisWeather